[[{"header":{"parameterUnit":"m.s-1","parameterCategory":1,"la1":30.2991,"la2":30.254,"lo1":-89.0895,"lo2":-89.0444,"dy":0.0017,"dx":0.0017,"nx":28,"ny":28,"refTime":"2025-07-09T03:00:00:Z","depth":0,"parameterNumber":2,"parameterNumberName":"U-component_of_WINDS"},"data":[0,0,0,0,0,0,0,0,0,0,0,0,0,0,0,0,0,0,0,0,0,0,0,0,0,0,0,0,0,0,0,0,0,0,0,0,0,0,0,0,0,0,0,0,0,0,0,0,0,0,0,0,0,0,0,0,0,0,3.9998,3.9998,0,4.0069,4.0069,4.007,4.0025,4.0023,4.0021,4.0019,4.0095,4.0099,4.0102,0,0,0,0,0,0,0,0,0,0,0,0,0,3.9827,3.983,3.9997,3.9998,3.9999,4.0068,4.0069,4.007,4.0025,4.0023,4.002,4.0018,4.0093,4.0098,4.0103,0,0,0,0,0,0,0,0,0,0,0,0,0,3.99,3.9831,3.9997,3.9985,3.9985,4.0068,4.0069,4.0071,4.0026,4.0023,4.002,4.0017,4.0092,4.0098,4.0103,4.0204,0,0,4.0122,4.0124,0,0,0,0,0,0,0,0,3.9896,3.9906,3.9986,3.9986,3.9986,4.0035,4.0037,4.0115,4.0027,4.001,4.0019,4.0015,4.0077,4.0084,4.0105,4.0208,4.0211,4.0122,4.0126,4.0128,4.013,0,0,0,0,0,0,0,3.9891,3.9903,4.0026,3.9987,3.9987,3.9977,3.9984,4.0052,4.0061,4.0012,4.0008,4.0017,4.0077,4.0099,4.0106,4.0212,4.0122,4.0127,4.0131,4.0133,4.0403,4.0407,0,0,0,0,0,0,3.9886,3.9899,4.0023,4.0028,3.9932,3.9983,3.9991,4.0022,4.006,4.0063,4.002,4.0015,4.009,4.0099,4.0109,4.0231,4.0128,4.0134,4.0137,4.04,4.0404,4.0408,0,0,0,0,0,0,3.9883,3.9898,4.002,3.9963,3.9977,3.9989,4.0025,4.0025,4.0047,4.0066,4.0068,4.0041,4.0088,4.01,4.0181,4.0233,4.0137,4.0142,4.0396,4.0401,4.0406,4.0474,0,0,0,0,0,0,3.9878,3.9897,3.9934,3.9964,3.9981,4.0091,4.0028,4.0029,4.0058,4.0052,4.0086,4.0089,4.0087,4.0172,4.0187,4.0239,4.0147,4.0391,4.0398,4.0404,4.0468,4.0481,4.0493,0,0,0,0,0,3.9872,3.995,3.9936,3.9951,4.0027,4.0094,4.0103,4.0098,4.0062,4.01,4.0113,4.0088,4.0224,4.0181,4.0197,4.0252,4.0388,4.0396,4.0404,4.0462,4.0479,4.0493,0,0,0,0,0,0,3.9927,3.9954,3.9938,4.0028,4.0059,4.0086,4.0134,4.0116,4.0158,4.0151,4.0143,4.0152,4.0237,4.0252,4.0203,4.0352,4.0301,4.0312,4.0339,4.0355,4.0368,4.0363,4.0152,0,0,0,0,0,3.9949,4.0,4.0021,4.0099,4.0115,4.0122,4.0151,4.0144,4.0176,4.0189,4.0207,4.024,4.029,4.0323,4.037,4.0469,4.0477,4.0515,4.0528,4.0538,4.0549,4.0605,4.0622,4.0434,4.0434,4.0434,0,0,3.9997,4.0018,4.005,4.0111,4.0133,4.0187,4.0133,4.0192,4.0233,4.0198,4.0275,4.029,4.0326,4.0417,4.0458,4.0433,4.0603,4.0549,4.0557,4.0562,4.0615,4.0633,4.0649,4.044,4.0439,4.0438,0,0,4.0111,4.0131,4.0199,4.0223,4.0258,4.0263,4.0279,4.0309,4.0317,4.0395,4.0371,4.0419,4.0505,4.0533,4.0558,4.0684,4.0664,4.07,4.0768,4.0822,4.0837,4.085,4.0897,4.0914,4.071,4.071,4.0711,0,4.0166,4.0245,4.0236,4.0298,4.0326,4.0296,4.0366,4.039,4.044,4.0461,4.0431,4.054,4.0562,4.066,4.0691,4.0712,4.0732,4.0696,4.0835,4.0848,4.086,4.0905,4.0923,4.0715,4.0714,4.0714,4.0713,0,4.0311,4.0367,4.0418,4.0466,4.05,4.0565,4.0568,4.0603,4.0594,4.0602,4.0683,4.0708,4.0761,4.0784,4.0775,4.0881,4.0865,4.0835,4.0784,4.0883,4.0925,4.0942,4.0721,4.0719,4.0718,4.0717,0,0,4.0462,4.0505,4.0525,4.0547,4.0584,4.0628,4.0692,4.0743,4.0775,4.081,4.0866,4.094,4.0914,4.0943,4.0937,4.0985,4.1086,4.095,4.0951,4.0976,4.1207,4.123,4.125,4.1072,4.1075,4.1078,4.1204,0,4.058,4.0692,4.0687,4.0793,4.0845,4.0819,4.0875,4.0906,4.0915,4.0962,4.0973,4.1027,4.0986,4.1004,4.105,4.1064,4.1132,4.1054,4.1126,4.1128,4.1119,4.1271,4.1295,4.1414,4.1221,4.1223,4.1225,0,4.0733,4.0773,4.0884,4.0915,4.0937,4.0988,4.1035,4.108,4.1114,4.1118,4.1151,4.1138,4.1205,4.1151,4.1245,4.1192,4.1221,4.1233,4.1237,4.1245,4.1184,4.1285,4.1451,4.147,4.1251,4.1249,4.1247,0,4.0834,4.0916,4.0994,4.1013,4.1051,4.1088,4.1105,4.1136,4.1168,4.121,4.1231,4.128,4.1307,4.1347,4.1348,4.1308,4.1445,4.139,4.1451,4.1452,4.1482,4.1481,4.1657,4.1498,4.1498,4.1498,4.1497,0,4.0967,4.1037,4.104,4.1088,4.1165,4.1159,4.1237,4.1251,4.1279,4.133,4.131,4.1359,4.1358,4.1408,4.141,4.1489,4.1501,4.1507,4.1507,4.151,4.151,4.153,4.1522,4.1502,4.1501,4.15,4.15,0,4.1094,4.1099,4.1182,4.1211,4.122,4.1276,4.1302,4.1348,4.1356,4.1421,4.1436,4.1449,4.1508,4.1513,4.158,4.1582,4.1678,4.1668,4.1667,4.1665,4.1728,4.1723,4.1925,4.1952,4.1774,4.1775,4.1777,0,4.118,4.1233,4.1267,4.13,4.132,4.1372,4.1405,4.1401,4.1436,4.148,4.1522,4.1578,4.1622,4.1717,4.1734,4.1786,4.1778,4.1846,4.1786,4.1788,4.1782,4.1779,4.1785,4.1858,4.186,4.1861,4.1862,0,4.1332,4.1332,4.1378,4.1427,4.1466,4.1504,4.1539,4.1567,4.1569,4.1609,4.1668,4.1703,4.1772,4.1829,4.188,4.19,4.1883,4.1881,4.1898,4.1903,4.19,4.1904,4.17,4.1877,4.1875,4.1874,4.1873,4.1873,4.1442,4.1489,4.1521,4.1574,4.16,4.1634,4.168,4.1693,4.1742,4.1798,4.1793,4.1859,4.1894,4.1961,4.1984,4.2037,4.2015,4.2039,4.2046,4.2053,4.206,4.189,4.2046,4.2046,4.2045,4.2045,4.2045,0,4.1595,4.1614,4.1663,4.1714,4.1756,4.1734,4.1773,4.1811,4.1869,4.1902,4.1946,4.2015,4.2071,4.2091,4.2146,4.2184,4.2178,4.2199,4.2197,4.2202,4.2076,4.2056,4.2203,4.2203,4.2203,4.2203,4.2203,4.2203,4.168,4.1758,4.1762,4.1853,4.1872,4.1936,4.196,4.1992,4.2019,4.2097,4.2142,4.2155,4.2184,4.2241,4.2291,4.2296,4.2318,4.2343,4.2345,4.2227,4.2211,4.2196,4.2177,4.2347,4.2347,4.2467,4.2468,4.2468]},{"header":{"parameterUnit":"m.s-1","parameterCategory":1,"la1":30.2991,"la2":30.254,"lo1":-89.0895,"lo2":-89.0444,"dy":0.0017,"dx":0.0017,"nx":28,"ny":28,"refTime":"2025-07-09T03:00:00:Z","depth":0,"parameterNumber":3,"parameterNumberName":"V-component_of_WINDS"},"data":[0,0,0,0,0,0,0,0,0,0,0,0,0,0,0,0,0,0,0,0,0,0,0,0,0,0,0,0,0,0,0,0,0,0,0,0,0,0,0,0,0,0,0,0,0,0,0,0,0,0,0,0,0,0,0,0,0,0,0.1977,0.1977,0,0.1957,0.1956,0.1956,0.1956,0.1956,0.1956,0.1957,0.1934,0.1933,0.1932,0,0,0,0,0,0,0,0,0,0,0,0,0,0.2014,0.2013,0.1977,0.1977,0.1977,0.1957,0.1956,0.1956,0.1956,0.1956,0.1956,0.1957,0.1934,0.1933,0.1932,0,0,0,0,0,0,0,0,0,0,0,0,0,0.1996,0.2013,0.1977,0.1974,0.1974,0.1957,0.1956,0.1956,0.1956,0.1956,0.1957,0.1957,0.1934,0.1933,0.1932,0.1916,0,0,0.1928,0.1927,0,0,0,0,0,0,0,0,0.1997,0.1995,0.1975,0.1975,0.1974,0.1959,0.1961,0.1942,0.1956,0.1963,0.1957,0.1957,0.1942,0.194,0.1935,0.1915,0.1914,0.1928,0.1927,0.1927,0.1926,0,0,0,0,0,0,0,0.1998,0.1996,0.1969,0.1975,0.1974,0.1973,0.1971,0.1957,0.195,0.1962,0.1962,0.196,0.1942,0.1936,0.1935,0.1914,0.1928,0.1927,0.1926,0.1925,0.1877,0.1876,0,0,0,0,0,0,0.2001,0.1997,0.197,0.1968,0.1987,0.1972,0.197,0.1964,0.195,0.1949,0.1959,0.196,0.1938,0.1936,0.1934,0.1913,0.1927,0.1925,0.1925,0.1877,0.1877,0.1876,0,0,0,0,0,0,0.2001,0.1998,0.1971,0.1983,0.1979,0.1971,0.1964,0.1963,0.1958,0.1948,0.1947,0.1955,0.1939,0.1936,0.192,0.1912,0.1925,0.1924,0.1878,0.1877,0.1876,0.1872,0,0,0,0,0,0,0.2003,0.1999,0.1993,0.1983,0.1978,0.1958,0.1964,0.1962,0.1956,0.1956,0.1944,0.1943,0.1939,0.1922,0.1919,0.1911,0.1923,0.1879,0.1878,0.1877,0.1872,0.1871,0.1869,0,0,0,0,0,0.2004,0.1993,0.1993,0.199,0.1972,0.1958,0.1955,0.1951,0.1955,0.1949,0.1943,0.1943,0.1914,0.192,0.1917,0.1908,0.1879,0.1878,0.1877,0.1873,0.1871,0.1869,0,0,0,0,0,0,0.2003,0.1991,0.1991,0.1977,0.1968,0.1958,0.195,0.195,0.1939,0.194,0.1935,0.1932,0.1916,0.1911,0.1918,0.1891,0.1897,0.1895,0.1895,0.1893,0.1892,0.1893,0.1922,0,0,0,0,0,0.2001,0.1991,0.1981,0.1969,0.1965,0.1958,0.1952,0.195,0.194,0.1936,0.1929,0.1919,0.1908,0.19,0.1889,0.1872,0.1868,0.1864,0.1862,0.1861,0.1859,0.1847,0.1845,0.1872,0.1872,0.1872,0,0,0.1997,0.1989,0.1983,0.1969,0.1962,0.1951,0.1955,0.1944,0.1935,0.1935,0.1919,0.1913,0.1902,0.1885,0.1877,0.188,0.1851,0.1859,0.1858,0.1857,0.1846,0.1843,0.1841,0.1871,0.1872,0.1872,0,0,0.1983,0.1977,0.1966,0.1959,0.1948,0.1943,0.194,0.1929,0.1925,0.191,0.1909,0.1898,0.1879,0.187,0.1863,0.1844,0.1844,0.1841,0.1833,0.1821,0.1819,0.1817,0.1809,0.1807,0.1839,0.1839,0.1839,0,0.1979,0.1964,0.196,0.1948,0.1941,0.194,0.1927,0.192,0.1906,0.1901,0.1904,0.1878,0.1871,0.1851,0.1846,0.1841,0.1836,0.1842,0.182,0.1818,0.1816,0.1808,0.1805,0.1839,0.1839,0.1839,0.1839,0,0.1958,0.1947,0.1939,0.1926,0.1918,0.1906,0.1899,0.1891,0.1889,0.1883,0.1866,0.1857,0.1843,0.1838,0.1836,0.1817,0.1819,0.1821,0.1827,0.1813,0.1806,0.1803,0.1838,0.1838,0.1839,0.1839,0,0,0.1945,0.1928,0.1925,0.1918,0.1906,0.1897,0.1883,0.187,0.1863,0.1853,0.1841,0.1823,0.1825,0.1817,0.1813,0.1804,0.1787,0.1807,0.1806,0.1802,0.1764,0.1762,0.1759,0.1787,0.1787,0.1786,0.1765,0,0.1929,0.1907,0.1902,0.1883,0.1871,0.1869,0.1858,0.1848,0.1842,0.183,0.1824,0.1811,0.1814,0.1809,0.18,0.1792,0.178,0.1793,0.1775,0.1774,0.1777,0.1755,0.1753,0.1733,0.1762,0.1761,0.1761,0,0.1909,0.1898,0.1877,0.1864,0.1859,0.1849,0.1835,0.1825,0.1813,0.1809,0.1799,0.1797,0.1782,0.1788,0.1766,0.1775,0.1767,0.1762,0.1761,0.1759,0.1766,0.1751,0.1727,0.1724,0.1757,0.1757,0.1757,0,0.1899,0.1879,0.1864,0.1858,0.1843,0.1836,0.1829,0.1818,0.1809,0.1797,0.1791,0.1777,0.1769,0.1758,0.1751,0.1756,0.1729,0.1735,0.1724,0.1724,0.1718,0.1718,0.1691,0.1714,0.1714,0.1714,0.1714,0,0.1882,0.1869,0.1859,0.1849,0.1834,0.1828,0.1813,0.1806,0.1796,0.1783,0.1781,0.1769,0.1761,0.1748,0.1742,0.1724,0.1721,0.1716,0.1715,0.1716,0.1716,0.171,0.1711,0.1713,0.1714,0.1714,0.1714,0,0.1869,0.1862,0.1845,0.1832,0.1828,0.1817,0.1805,0.1795,0.1788,0.1773,0.1769,0.1758,0.1743,0.1734,0.1715,0.1711,0.169,0.169,0.1694,0.1693,0.1682,0.1683,0.1649,0.1644,0.1671,0.1671,0.1671,0,0.1858,0.1848,0.1833,0.1825,0.1818,0.1805,0.1797,0.179,0.1781,0.1765,0.1756,0.1741,0.1728,0.1702,0.1692,0.1676,0.1675,0.1664,0.1673,0.1674,0.1673,0.1674,0.1672,0.1663,0.1663,0.1662,0.1662,0,0.1839,0.1836,0.1824,0.181,0.1799,0.1788,0.1777,0.177,0.1761,0.175,0.1734,0.1724,0.1704,0.1687,0.167,0.1662,0.166,0.166,0.1656,0.1657,0.1659,0.1656,0.1689,0.166,0.1661,0.1661,0.1661,0.1661,0.1826,0.1816,0.1804,0.179,0.1781,0.177,0.1759,0.1751,0.1738,0.1721,0.1717,0.1699,0.1686,0.1663,0.1654,0.1639,0.1641,0.1637,0.1635,0.1634,0.1632,0.1662,0.1636,0.1636,0.1636,0.1636,0.1636,0,0.1806,0.1798,0.1785,0.1769,0.1757,0.1757,0.1744,0.1734,0.1719,0.1706,0.1693,0.1673,0.1657,0.1645,0.1628,0.1618,0.1617,0.1614,0.1614,0.1612,0.1632,0.1637,0.1615,0.1615,0.1615,0.1615,0.1615,0.1615,0.1794,0.1777,0.1772,0.1749,0.1741,0.1724,0.1716,0.1705,0.1695,0.1674,0.166,0.1653,0.164,0.1621,0.1606,0.1602,0.1596,0.1593,0.1589,0.1608,0.1611,0.1613,0.1617,0.1591,0.1591,0.157,0.1569,0.1569]}]]